{"data":{"norad_id":62422,"epoch":"2026-05-25T00:14:38.103936Z","epoch_age_seconds":77714,"freshness":"FRESH","line1":"1 62422U 24249P   26145.01016324  .00007357  00000+0  27663-3 0  9990","line2":"2 62422  43.0022 251.0228 0001635 273.5468  86.5197 15.27579082 79399","mean_motion":15.27579082,"eccentricity":0.0001635,"inclination_deg":43.0022,"raan_deg":251.0228,"arg_perigee_deg":273.5468,"mean_anomaly_deg":86.5197,"bstar":0.00027663,"rev_number":7939,"period_min":94.266805363338,"perigee_km":481.93004048714,"apogee_km":484.17364923941,"semimajor_km":6861.1888448633,"source":"CELESTRAK","updated_at":"2026-05-25T13:38:19.654785Z"}}